| time (UTC) | temp C | wind direction | speed KPH | gust KPH | rain 1hr cm | rain 24hr cm | rain mn cm | humidity % | barometer mb |
| 20260510151516 | 16 | 89 | 0.0 | 8.0 | 0.00 | 0.84 | 0.00 | 87 | 1012.4 |
| 20260510150012 | 14 | 333 | 1.6 | 6.4 | 0.00 | 0.84 | 0.00 | 88 | 1012.4 |
| 20260510144515 | 14 | 281 | 0.0 | 9.7 | 0.00 | 0.91 | 0.00 | 91 | 1012.5 |
| 20260510143005 | 13 | 265 | 0.0 | 3.2 | 0.00 | 0.91 | 0.00 | 92 | 1012.6 |
| 20260510141502 | 13 | 303 | 0.0 | 4.8 | 0.00 | 0.91 | 0.00 | 94 | 1012.7 |
| 20260510140100 | 13 | 295 | 0.0 | 1.6 | 0.00 | 0.91 | 0.00 | 95 | 1012.7 |
| 20260510134558 | 12 | 295 | 0.0 | 4.8 | 0.00 | 0.97 | 0.00 | 97 | 1012.6 |
| 20260510133055 | 12 | 295 | 0.0 | 1.6 | 0.00 | 0.97 | 0.00 | 98 | 1012.6 |
| 20260510131553 | 11 | 299 | 0.0 | 1.6 | 0.00 | 0.97 | 0.00 | 98 | 1012.6 |
| 20260510130051 | 11 | 299 | 0.0 | 1.6 | 0.00 | 0.97 | 0.00 | 98 | 1012.6 |
| 20260510124551 | 11 | 299 | 0.0 | 4.8 | 0.00 | 0.97 | 0.00 | 98 | 1012.8 |
| 20260510123049 | 11 | 300 | 0.0 | 6.4 | 0.00 | 0.97 | 0.00 | 98 | 1012.6 |
| 20260510121552 | 11 | 317 | 0.0 | 3.2 | 0.00 | 0.97 | 0.00 | 99 | 1012.6 |
| 20260510120045 | 11 | 243 | 0.0 | 4.8 | 0.00 | 0.97 | 0.00 | 99 | 1012.4 |
| 20260510114545 | 11 | 152 | 0.0 | 1.6 | 0.00 | 0.97 | 0.00 | 99 | 1012.5 |
| 20260510113043 | 10 | 152 | 0.0 | 1.6 | 0.00 | 0.97 | 0.00 | 99 | 1012.6 |
| 20260510111539 | 10 | 286 | 0.0 | 1.6 | 0.00 | 0.97 | 0.00 | 99 | 1012.7 |
| 20260510110039 | 10 | 175 | 0.0 | 1.6 | 0.00 | 0.97 | 0.00 | 99 | 1012.1 |
| 20260510104535 | 10 | 161 | 0.0 | 1.6 | 0.00 | 0.97 | 0.00 | 99 | 1012.2 |
| 20260510103041 | 9 | 202 | 0.0 | 3.2 | 0.00 | 0.97 | 0.00 | 99 | 1011.7 |
| 20260510101531 | 9 | 281 | 0.0 | 1.6 | 0.00 | 0.97 | 0.00 | 99 | 1011.9 |
| 20260510100034 | 9 | 282 | 0.0 | 0.0 | 0.00 | 0.97 | 0.00 | 99 | 1012.0 |
| 20260510094630 | 8 | 282 | 0.0 | 1.6 | 0.00 | 0.97 | 0.00 | 99 | 1012.0 |
| 20260510093029 | 8 | 282 | 0.0 | 1.6 | 0.00 | 0.97 | 0.00 | 99 | 1011.9 |
| 20260510091528 | 8 | 282 | 0.0 | 0.0 | 0.00 | 0.97 | 0.00 | 99 | 1011.7 |
| 20260510090034 | 8 | 282 | 0.0 | 0.0 | 0.00 | 0.97 | 0.00 | 99 | 1011.7 |
| 20260510084528 | 8 | 282 | 0.0 | 0.0 | 0.00 | 0.97 | 0.00 | 99 | 1011.9 |
| 20260510083036 | 8 | 282 | 0.0 | 0.0 | 0.00 | 0.97 | 0.00 | 98 | 1011.6 |
| 20260510081526 | 8 | 282 | 0.0 | 0.0 | 0.00 | 0.97 | 0.00 | 98 | 1011.7 |
| 20260510080030 | 8 | 282 | 0.0 | 0.0 | 0.00 | 0.97 | 0.00 | 98 | 1011.3 |
| 20260510074524 | 8 | 282 | 0.0 | 1.6 | 0.00 | 0.97 | 0.00 | 98 | 1011.4 |
| 20260510073029 | 8 | 282 | 0.0 | 0.0 | 0.00 | 0.97 | 0.00 | 98 | 1011.3 |
| 20260510071534 | 8 | 282 | 0.0 | 1.6 | 0.00 | 0.97 | 0.00 | 98 | 1011.0 |
| 20260510070027 | 8 | 282 | 0.0 | 0.0 | 0.00 | 0.97 | 0.00 | 98 | 1010.8 |
| 20260510064524 | 9 | 282 | 0.0 | 1.6 | 0.00 | 0.97 | 0.00 | 98 | 1011.0 |
| 20260510063019 | 9 | 282 | 0.0 | 1.6 | 0.00 | 0.97 | 0.00 | 98 | 1011.1 |
| 20260510061515 | 9 | 282 | 0.0 | 0.0 | 0.00 | 0.97 | 0.00 | 98 | 1011.4 |
| 20260510060016 | 9 | 282 | 0.0 | 1.6 | 0.00 | 0.97 | 0.00 | 98 | 1011.3 |
| 20260510054518 | 9 | 282 | 0.0 | 0.0 | 0.00 | 0.97 | 0.00 | 98 | 1011.4 |
| 20260510053011 | 9 | 282 | 0.0 | 0.0 | 0.00 | 0.97 | 0.00 | 98 | 1011.7 |
| 20260510051515 | 9 | 282 | 0.0 | 0.0 | 0.00 | 0.97 | 0.00 | 98 | 1011.8 |
| 20260510050010 | 9 | 282 | 0.0 | 0.0 | 0.00 | 0.97 | 0.00 | 98 | 1011.7 |
| 20260510044509 | 8 | 282 | 0.0 | 1.6 | 0.00 | 0.97 | 0.00 | 98 | 1011.8 |
| 20260510043006 | 8 | 282 | 0.0 | 0.0 | 0.00 | 0.97 | 0.00 | 98 | 1011.9 |
| 20260510041502 | 8 | 282 | 0.0 | 0.0 | 0.00 | 0.97 | 0.00 | 98 | 1011.9 |
| 20260510040100 | 8 | 282 | 0.0 | 0.0 | 0.00 | 0.97 | 0.00 | 98 | 1011.6 |
| 20260510034557 | 8 | 282 | 0.0 | 1.6 | 0.00 | 0.97 | 0.97 | 98 | 1011.9 |
| 20260510033059 | 8 | 282 | 0.0 | 1.6 | 0.00 | 0.97 | 0.97 | 98 | 1011.8 |
| 20260510031559 | 8 | 282 | 0.0 | 1.6 | 0.00 | 0.97 | 0.97 | 98 | 1012.1 |
| 20260510030056 | 8 | 282 | 0.0 | 0.0 | 0.00 | 0.97 | 0.97 | 98 | 1012.3 |
| 20260510024559 | 8 | 282 | 0.0 | 0.0 | 0.00 | 0.97 | 0.97 | 98 | 1012.5 |
| 20260510023052 | 8 | 282 | 0.0 | 1.6 | 0.00 | 0.97 | 0.97 | 98 | 1012.4 |
| 20260510021552 | 8 | 282 | 0.0 | 0.0 | 0.00 | 0.97 | 0.97 | 98 | 1012.6 |
| 20260510020054 | 8 | 282 | 0.0 | 0.0 | 0.00 | 0.97 | 0.97 | 98 | 1012.7 |
| 20260510014550 | 8 | 282 | 0.0 | 1.6 | 0.00 | 0.97 | 0.97 | 98 | 1012.6 |
| 20260510013103 | 8 | 282 | 0.0 | 0.0 | 0.03 | 0.97 | 0.97 | 98 | 1012.8 |
| 20260510011549 | 8 | 282 | 0.0 | 1.6 | 0.03 | 0.97 | 0.97 | 98 | 1012.6 |
| 20260510004557 | 7 | 174 | 0.0 | 3.2 | 0.05 | 0.97 | 0.97 | 97 | 1012.2 |
| 20260510003048 | 7 | 189 | 0.0 | 3.2 | 0.05 | 0.94 | 0.94 | 97 | 1012.2 |
| 20260510001547 | 7 | 208 | 0.0 | 0.0 | 0.08 | 0.94 | 0.94 | 97 | 1012.6 |
| 20260510000047 | 7 | 205 | 0.0 | 3.2 | 0.10 | 0.94 | 0.94 | 97 | 1012.6 |
| 20260509234600 | 7 | 210 | 0.0 | 1.6 | 0.10 | 0.91 | 0.91 | 97 | 1012.6 |
| 20260509233045 | 7 | 162 | 0.0 | 3.2 | 0.10 | 0.89 | 0.89 | 97 | 1012.4 |
| 20260509231546 | 7 | 210 | 0.0 | 0.0 | 0.10 | 0.86 | 0.86 | 97 | 1012.3 |
| 20260509230045 | 7 | 157 | 0.0 | 3.2 | 0.08 | 0.84 | 0.84 | 97 | 1012.1 |
| 20260509224545 | 7 | 251 | 0.0 | 4.8 | 0.08 | 0.81 | 0.81 | 97 | 1012.1 |
| 20260509223043 | 7 | 155 | 0.0 | 3.2 | 0.10 | 0.79 | 0.79 | 97 | 1012.2 |
| 20260509221601 | 7 | 179 | 0.0 | 3.2 | 0.18 | 0.76 | 0.76 | 97 | 1012.4 |
| 20260509220048 | 8 | 269 | 0.0 | 1.6 | 0.23 | 0.76 | 0.76 | 96 | 1012.6 |
| 20260509214540 | 8 | 258 | 0.0 | 1.6 | 0.36 | 0.71 | 0.71 | 96 | 1012.6 |
| 20260509213041 | 8 | 272 | 0.0 | 1.6 | 0.33 | 0.69 | 0.69 | 96 | 1012.7 |
| 20260509211539 | 8 | 252 | 0.0 | 1.6 | 0.25 | 0.58 | 0.58 | 96 | 1012.7 |
| 20260509210042 | 8 | 260 | 0.0 | 3.2 | 0.20 | 0.53 | 0.53 | 96 | 1012.7 |
| 20260509204538 | 8 | 227 | 0.0 | 1.6 | 0.05 | 0.38 | 0.38 | 96 | 1012.8 |
| 20260509203044 | 8 | 229 | 0.0 | 4.8 | 0.03 | 0.36 | 0.36 | 96 | 1012.6 |
| 20260509201536 | 8 | 198 | 0.0 | 0.0 | 0.00 | 0.33 | 0.33 | 96 | 1012.6 |
| 20260509200042 | 8 | 198 | 0.0 | 1.6 | 0.00 | 0.33 | 0.33 | 96 | 1012.7 |
| 20260509194536 | 8 | 215 | 0.0 | 3.2 | 0.00 | 0.33 | 0.33 | 96 | 1012.7 |
| 20260509193041 | 8 | 219 | 0.0 | 3.2 | 0.00 | 0.33 | 0.33 | 95 | 1012.6 |
| 20260509191534 | 8 | 201 | 0.0 | 4.8 | 0.00 | 0.33 | 0.33 | 96 | 1012.2 |
| 20260509190043 | 8 | 274 | 0.0 | 3.2 | 0.00 | 0.33 | 0.33 | 96 | 1012.6 |
| 20260509184534 | 8 | 173 | 0.0 | 6.4 | 0.03 | 0.33 | 0.33 | 96 | 1012.9 |
| 20260509183034 | 8 | 233 | 0.0 | 4.8 | 0.05 | 0.33 | 0.33 | 95 | 1013.0 |
| 20260509181524 | 8 | 231 | 0.0 | 1.6 | 0.08 | 0.33 | 0.33 | 96 | 1013.6 |
| 20260509180023 | 8 | 227 | 0.0 | 3.2 | 0.08 | 0.33 | 0.33 | 95 | 1013.4 |
| 20260509174526 | 8 | 250 | 0.0 | 1.6 | 0.05 | 0.30 | 0.30 | 95 | 1013.7 |
| 20260509173021 | 8 | 249 | 0.0 | 1.6 | 0.08 | 0.28 | 0.28 | 95 | 1013.7 |
| 20260509171523 | 8 | 208 | 0.0 | 1.6 | 0.05 | 0.25 | 0.25 | 95 | 1013.9 |
| 20260509170029 | 7 | 198 | 0.0 | 0.0 | 0.08 | 0.25 | 0.25 | 95 | 1014.1 |
| 20260509164518 | 7 | 197 | 0.0 | 0.0 | 0.10 | 0.25 | 0.25 | 95 | 1014.1 |
| 20260509163017 | 7 | 196 | 0.0 | 1.6 | 0.05 | 0.20 | 0.20 | 94 | 1014.2 |
| 20260509161517 | 7 | 190 | 0.0 | 1.6 | 0.08 | 0.20 | 0.20 | 94 | 1014.0 |
| 20260509160019 | 7 | 227 | 0.0 | 3.2 | 0.05 | 0.18 | 0.18 | 94 | 1013.9 |
| 20260509154516 | 7 | 267 | 0.0 | 1.6 | 0.05 | 0.15 | 0.15 | 93 | 1014.2 |
| 20260509153016 | 7 | 272 | 0.0 | 0.0 | 0.08 | 0.15 | 0.15 | 93 | 1014.5 |